User: anonymous   Login
Location: Tyumen
(57.1527°N, 65.5323°E)
Time: 11:26:36
(UTC+05:00)
Language:

ISS - Orbit

View from above orbital plane
View from above orbital plane
View from above satellite
View from above satellite

Ground track
Ground track

The orbit data is extracted from the following two-line orbital elements,

1 25544U 98067A   25192.82280029  .00007397  00000-0  13514-3 0  9993
2 25544  51.6336 184.9598 0002651   0.6164 359.4828 15.50489224518981
Epoch (UTC): 11 July 2025 19:44:49
Eccentricity: 0.0002651
inclination: 51.6336°
perigee height: 413 km
apogee height: 417 km
right ascension of ascending node: 184.9598°
argument of perigee: 0.6164°
revolutions per day: 15.50489224
mean anomaly at epoch: 359.4828°
orbit number at epoch: 51898

The dashed part of the orbit path shows where the satellite is in the earth's shadow,  

DLR